TimeMDT,TemperatureF,Dew PointF,Humidity,Sea Level PressureIn,VisibilityMPH,Wind Direction,Wind SpeedMPH,Gust SpeedMPH,PrecipitationIn,Events,Conditions,WindDirDegrees,DateUTC
12:52 AM,63.0,60.1,90,29.99,10.0,Calm,Calm,-,N/A,,Clear,0,2013-08-30 06:52:00
1:52 AM,63.0,61.0,93,29.98,10.0,ENE,4.6,-,N/A,,Clear,70,2013-08-30 07:52:00
2:52 AM,62.1,60.1,93,29.99,10.0,Calm,Calm,-,N/A,,Clear,0,2013-08-30 08:52:00
3:52 AM,62.1,59.0,90,29.99,10.0,NE,4.6,-,N/A,,Clear,50,2013-08-30 09:52:00
4:52 AM,60.1,57.9,93,29.98,10.0,ESE,3.5,-,N/A,,Clear,110,2013-08-30 10:52:00
5:52 AM,60.1,57.9,93,30.01,10.0,Calm,Calm,-,N/A,,Clear,0,2013-08-30 11:52:00
6:52 AM,62.1,60.1,93,30.01,10.0,East,4.6,-,N/A,,Clear,80,2013-08-30 12:52:00
7:52 AM,66.0,63.0,90,30.05,10.0,Calm,Calm,-,N/A,,Clear,0,2013-08-30 13:52:00
8:52 AM,73.9,64.9,73,30.02,10.0,Variable,3.5,-,N/A,,Clear,0,2013-08-30 14:52:00
9:52 AM,82.9,62.1,49,30.00,10.0,ESE,9.2,-,N/A,,Clear,120,2013-08-30 15:52:00
10:52 AM,88.0,61.0,40,29.98,10.0,SE,5.8,-,N/A,,Clear,140,2013-08-30 16:52:00
11:52 AM,91.9,60.1,34,29.97,10.0,Variable,5.8,-,N/A,,Clear,0,2013-08-30 17:52:00
12:52 PM,93.0,59.0,32,29.95,10.0,Variable,5.8,-,N/A,,Clear,0,2013-08-30 18:52:00
1:52 PM,96.1,57.9,28,29.92,10.0,SSW,10.4,-,N/A,,Clear,210,2013-08-30 19:52:00
2:52 PM,96.1,57.0,27,29.89,10.0,Calm,Calm,-,N/A,,Clear,0,2013-08-30 20:52:00
3:52 PM,91.9,57.0,31,29.87,10.0,SW,6.9,-,N/A,,Clear,230,2013-08-30 21:52:00
4:52 PM,89.1,57.9,35,29.83,10.0,ESE,6.9,-,N/A,,Partly Cloudy,120,2013-08-30 22:52:00
5:52 PM,88.0,60.1,39,29.91,4.0,NW,28.8,40.3,N/A,,Haze,310,2013-08-30 23:52:00
8:52 PM,71.1,63.0,75,29.94,10.0,SSE,16.1,23.0,N/A,,Unknown,150,2013-08-31 02:52:00
9:52 PM,71.1,61.0,70,29.92,10.0,SE,12.7,-,N/A,,Clear,130,2013-08-31 03:52:00
10:52 PM,71.1,57.9,63,29.91,10.0,SSE,13.8,24.2,N/A,,Clear,160,2013-08-31 04:52:00
11:52 PM,69.1,59.0,70,29.90,10.0,South,10.4,-,N/A,,Clear,190,2013-08-31 05:52:00